Tracking 19176 objects as of 25-May-2018
HD Live streaming from Space Station
objects crossing your sky now

PEGASUS R/B

Track PEGASUS R/B now!
10-day predictions


NORAD ID: 41892
Int'l Code: 2016-078J
Perigee: 519.4 km
Apogee: 536.2 km
Inclination: 35.0 °
Period: 95.0 minutes
Semi major axis: 6898 km
RCS: Unknown
Launch date: December 15, 2016
Source: United States (US)
Launch site: Pegasus launched from Eastern Range Air Space (ERAS)

Note: This is a ROCKET BODY
aabbcc
Your satellite tracking list
Your tracking list is empty




NASA's NSSDC Master Catalog

Two Line Element Set (TLE):
1 41892U 16078J   18144.88746488  .00000314  00000-0  18099-4 0  9996
2 41892  34.9543  59.3068 0012233 144.2029 215.9504 15.15103049 79706
Source of the keplerian elements: AFSPC